Home   Weather   Bucaramanga   Past weeks

Flag for Colombia Past Weather in Bucaramanga, Colombia — Yesterday and Last 2 Weeks

Now
70 °F

Partly cloudy.


Feels Like: 70 °F
Forecast: 66 / 81 °F
Wind: 3 mph from Southeast

Location: Bucaramanga / Palonegro

Current Time: Apr 26, 2017 at 5:14:00 am

Latest Report: Apr 26, 2017 at 12:00 am


Visibility: N/A

Pressure: 29.99 "Hg (26.84 "Hg at 956m altitude)

Humidity: 100%

Dew Point: 70 °F

Location of BucaramangaLocation

Past Weather in Bucaramanga — Graph

°F

Bucaramanga Temperature Yesterday

Maximum temperature yesterday: 81 °F (at 3:00 pm)
Minimum temperature yesterday: 66 °F (at 1:00 am)
Average temperature yesterday: 73 °F

High & Low Weather Summary for the Past Weeks

 TemperatureHumidityPressure
High81 °F (Apr 17, 3:00 pm)100% (Apr 12, 6:00 am)30.10 "Hg (Apr 12, 6:00 am)
Low64 °F (Apr 14, 6:00 am)65% (Apr 21, 2:00 pm)29.88 "Hg (Apr 23, 4:00 pm)
Average72 °F89%29.99 "Hg
* Reported Apr 12 6:00 am — Apr 26 12:00 am, Bucaramanga, Weather by CustomWeather, © 2017

Note: Actual official high and low records may vary slightly from our data, if they occured in-between our weather recording intervals... More about our weather records

Advertising

Bucaramanga Weather History for the Previous 24 Hours

Scroll right to see more
 ConditionsComfort  
Time TempWeatherWind HumidityBarometerVisibility
12:00 am
Wed, Apr 26
70 °FPartly cloudy.3 mph100%29.99 "HgN/A
11:00 pm
Tue, Apr 25
70 °FPartly cloudy.2 mph100%30.02 "Hg3 mi
10:00 pm70 °FPartly cloudy.2 mph100%30.01 "Hg3 mi
9:00 pm70 °FPartly cloudy.2 mph100%29.99 "HgN/A
8:00 pm70 °FPartly cloudy.3 mph100%29.96 "HgN/A
7:00 pm72 °FThunderstorms. Partly cloudy.8 mph100%29.95 "HgN/A
6:00 pm72 °FPassing clouds.9 mph100%29.92 "HgN/A
5:00 pm73 °FScattered clouds.9 mph100%29.90 "HgN/A
4:00 pm79 °FScattered clouds.9 mph70%29.89 "HgN/A
3:00 pm81 °FScattered clouds.7 mph70%29.91 "HgN/A
2:00 pm79 °FScattered clouds.7 mph79%29.93 "HgN/A
1:00 pm77 °FScattered clouds.9 mph74%29.97 "HgN/A
12:00 pm79 °FScattered clouds.5 mph74%30.00 "HgN/A
11:00 am79 °FScattered clouds.3 mph74%30.02 "HgN/A
10:00 am77 °FScattered clouds.3 mph69%30.04 "HgN/A
9:00 am72 °FScattered clouds.8 mph83%30.04 "HgN/A
8:00 am68 °FPartly sunny.7 mph100%30.04 "HgN/A
7:00 am68 °FPartly sunny.6 mph94%30.01 "HgN/A
6:00 am66 °FPartly sunny.7 mph100%29.99 "HgN/A
Weather by CustomWeather, © 2017

See weather overviewHow to use our weather pages